| time (UTC) | temp F | wind direction | speed MPH | gust MPH | rain 1hr in | rain 24hr in | rain mn in | humidity % | barometer mb |
| 20260506173502 | 72 | 177 | 1.0 | 3.0 | 0.01 | 0.01 | 0.01 | 67 | 1013.4 |
| 20260506173003 | 72 | 156 | 1.0 | 5.0 | 0.01 | 0.01 | 0.01 | 68 | 1013.5 |
| 20260506172503 | 71 | 300 | 0.0 | 2.0 | 0.01 | 0.01 | 0.01 | 69 | 1013.4 |
| 20260506172003 | 71 | 307 | 1.0 | 3.0 | 0.01 | 0.01 | 0.01 | 70 | 1013.5 |
| 20260506171504 | 70 | 347 | 1.0 | 3.0 | 0.01 | 0.01 | 0.01 | 71 | 1013.7 |
| 20260506171003 | 70 | 165 | 2.0 | 7.0 | 0.01 | 0.01 | 0.01 | 72 | 1013.9 |
| 20260506170503 | 70 | 180 | 2.0 | 3.0 | 0.01 | 0.01 | 0.01 | 71 | 1014.0 |
| 20260506165502 | 70 | 41 | 1.0 | 2.0 | 0.01 | 0.01 | 0.01 | 71 | 1014.0 |
| 20260506165003 | 70 | 228 | 0.0 | 3.0 | 0.00 | 0.00 | 0.00 | 71 | 1013.9 |
| 20260506164502 | 70 | 177 | 2.0 | 3.0 | 0.00 | 0.00 | 0.00 | 71 | 1014.1 |
| 20260506163503 | 70 | 160 | 1.0 | 3.0 | 0.00 | 0.00 | 0.00 | 68 | 1014.1 |
| 20260506162003 | 70 | 240 | 1.0 | 3.0 | 0.00 | 0.00 | 0.00 | 67 | 1014.0 |
| 20260506161502 | 70 | 81 | 2.0 | 3.0 | 0.00 | 0.00 | 0.00 | 66 | 1014.0 |
| 20260506161003 | 70 | 117 | 1.0 | 2.0 | 0.00 | 0.00 | 0.00 | 66 | 1014.1 |
| 20260506160503 | 70 | 199 | 1.0 | 3.0 | 0.00 | 0.00 | 0.00 | 65 | 1014.1 |
| 20260506160003 | 70 | 314 | 1.0 | 2.0 | 0.00 | 0.00 | 0.00 | 68 | 1014.0 |
| 20260506155504 | 70 | 242 | 2.0 | 3.0 | 0.00 | 0.00 | 0.00 | 67 | 1014.0 |
| 20260506154503 | 69 | 253 | 1.0 | 3.0 | 0.00 | 0.00 | 0.00 | 66 | 1013.9 |
| 20260506153503 | 69 | 298 | 1.0 | 2.0 | 0.00 | 0.00 | 0.00 | 66 | 1014.0 |
| 20260506153003 | 69 | 189 | 1.0 | 2.0 | 0.00 | 0.00 | 0.00 | 67 | 1014.0 |
| 20260506152504 | 69 | 326 | 0.0 | 2.0 | 0.00 | 0.00 | 0.00 | 68 | 1014.0 |
| 20260506152003 | 69 | 155 | 2.0 | 3.0 | 0.00 | 0.00 | 0.00 | 68 | 1013.8 |
| 20260506151003 | 69 | 152 | 1.0 | 2.0 | 0.00 | 0.00 | 0.00 | 66 | 1013.8 |
| 20260506150503 | 69 | 179 | 1.0 | 2.0 | 0.00 | 0.00 | 0.00 | 66 | 1013.8 |
| 20260506145503 | 69 | 163 | 1.0 | 2.0 | 0.00 | 0.00 | 0.00 | 67 | 1013.6 |
| 20260506145003 | 69 | 185 | 1.0 | 3.0 | 0.00 | 0.00 | 0.00 | 67 | 1013.5 |
| 20260506144503 | 69 | 207 | 3.0 | 5.0 | 0.00 | 0.00 | 0.00 | 66 | 1013.5 |
| 20260506144003 | 69 | 104 | 1.0 | 3.0 | 0.00 | 0.00 | 0.00 | 66 | 1013.5 |
| 20260506143003 | 68 | 125 | 1.0 | 3.0 | 0.00 | 0.00 | 0.00 | 66 | 1013.6 |
| 20260506142502 | 67 | 241 | 2.0 | 2.0 | 0.00 | 0.00 | 0.00 | 68 | 1013.6 |
| 20260506141003 | 67 | 177 | 1.0 | 2.0 | 0.00 | 0.00 | 0.00 | 69 | 1014.0 |
| 20260506140503 | 67 | 213 | 1.0 | 2.0 | 0.00 | 0.00 | 0.00 | 69 | 1014.0 |
| 20260506140003 | 67 | 214 | 1.0 | 3.0 | 0.00 | 0.00 | 0.00 | 68 | 1014.0 |
| 20260506135503 | 66 | 152 | 1.0 | 3.0 | 0.00 | 0.00 | 0.00 | 69 | 1014.1 |
| 20260506135003 | 66 | 154 | 2.0 | 2.0 | 0.00 | 0.00 | 0.00 | 69 | 1014.0 |
| 20260506134502 | 66 | 172 | 1.0 | 2.0 | 0.00 | 0.00 | 0.00 | 70 | 1014.1 |
| 20260506134003 | 66 | 155 | 0.0 | 2.0 | 0.00 | 0.00 | 0.00 | 70 | 1014.2 |
| 20260506133503 | 65 | 174 | 1.0 | 2.0 | 0.00 | 0.00 | 0.00 | 70 | 1014.2 |
| 20260506133003 | 65 | 200 | 1.0 | 2.0 | 0.00 | 0.00 | 0.00 | 70 | 1014.2 |
| 20260506131502 | 65 | 176 | 0.0 | 3.0 | 0.00 | 0.00 | 0.00 | 72 | 1014.6 |
| 20260506131004 | 65 | 157 | 1.0 | 2.0 | 0.00 | 0.00 | 0.00 | 70 | 1014.6 |
| 20260506125503 | 65 | 288 | 2.0 | 3.0 | 0.00 | 0.00 | 0.00 | 71 | 1014.2 |
| 20260506125003 | 65 | 87 | 1.0 | 2.0 | 0.00 | 0.00 | 0.00 | 71 | 1014.2 |
| 20260506124504 | 65 | 174 | 1.0 | 3.0 | 0.00 | 0.00 | 0.00 | 71 | 1014.1 |
| 20260506124003 | 65 | 183 | 3.0 | 6.0 | 0.00 | 0.00 | 0.00 | 71 | 1014.0 |
| 20260506123502 | 65 | 206 | 1.0 | 3.0 | 0.00 | 0.00 | 0.00 | 72 | 1013.9 |
| 20260506123003 | 65 | 246 | 1.0 | 5.0 | 0.00 | 0.00 | 0.00 | 72 | 1013.8 |
| 20260506122503 | 65 | 165 | 2.0 | 5.0 | 0.00 | 0.00 | 0.00 | 71 | 1013.7 |
| 20260506122003 | 65 | 339 | 1.0 | 2.0 | 0.00 | 0.00 | 0.00 | 72 | 1013.7 |
| 20260506121503 | 65 | 176 | 1.0 | 2.0 | 0.00 | 0.00 | 0.00 | 72 | 1013.6 |
| 20260506120502 | 64 | 162 | 2.0 | 5.0 | 0.00 | 0.00 | 0.00 | 72 | 1013.5 |
| 20260506120003 | 64 | 215 | 1.0 | 2.0 | 0.00 | 0.00 | 0.00 | 73 | 1013.4 |
| 20260506115503 | 64 | 81 | 2.0 | 5.0 | 0.00 | 0.00 | 0.00 | 72 | 1013.3 |
| 20260506115003 | 64 | 198 | 1.0 | 2.0 | 0.00 | 0.00 | 0.00 | 73 | 1013.3 |
| 20260506114502 | 64 | 155 | 2.0 | 3.0 | 0.00 | 0.00 | 0.00 | 73 | 1013.5 |
| 20260506114003 | 64 | 209 | 1.0 | 5.0 | 0.00 | 0.00 | 0.00 | 73 | 1013.5 |
| 20260506113503 | 64 | 194 | 2.0 | 3.0 | 0.00 | 0.00 | 0.00 | 74 | 1013.4 |
| 20260506113003 | 63 | 150 | 2.0 | 3.0 | 0.00 | 0.00 | 0.00 | 74 | 1013.5 |
| 20260506112503 | 63 | 142 | 1.0 | 2.0 | 0.00 | 0.00 | 0.00 | 74 | 1013.6 |
| 20260506112003 | 63 | 219 | 1.0 | 3.0 | 0.00 | 0.00 | 0.00 | 74 | 1013.6 |
| 20260506111503 | 63 | 355 | 1.0 | 3.0 | 0.00 | 0.00 | 0.00 | 74 | 1013.5 |
| 20260506110503 | 63 | 140 | 1.0 | 3.0 | 0.00 | 0.00 | 0.00 | 74 | 1013.4 |
| 20260506110003 | 63 | 282 | 1.0 | 2.0 | 0.00 | 0.00 | 0.00 | 75 | 1013.5 |
| 20260506105502 | 63 | 292 | 1.0 | 1.0 | 0.00 | 0.00 | 0.00 | 75 | 1013.5 |
| 20260506103503 | 63 | 325 | 1.0 | 2.0 | 0.00 | 0.00 | 0.00 | 76 | 1013.3 |
| 20260506103003 | 63 | 168 | 0.0 | 3.0 | 0.00 | 0.00 | 0.00 | 76 | 1013.3 |
| 20260506102003 | 62 | 193 | 2.0 | 3.0 | 0.00 | 0.00 | 0.00 | 76 | 1013.3 |
| 20260506101503 | 62 | 228 | 0.0 | 1.0 | 0.00 | 0.00 | 0.00 | 76 | 1013.4 |
| 20260506100503 | 62 | 211 | 0.0 | 3.0 | 0.00 | 0.00 | 0.00 | 76 | 1013.6 |
| 20260506100003 | 62 | 154 | 1.0 | 2.0 | 0.00 | 0.00 | 0.00 | 76 | 1013.6 |
| 20260506095503 | 62 | 168 | 1.0 | 5.0 | 0.00 | 0.00 | 0.00 | 76 | 1013.6 |
| 20260506095003 | 62 | 169 | 0.0 | 2.0 | 0.00 | 0.00 | 0.00 | 77 | 1013.7 |
| 20260506094503 | 62 | 153 | 0.0 | 2.0 | 0.00 | 0.00 | 0.00 | 77 | 1013.7 |
| 20260506094005 | 62 | 227 | 0.0 | 1.0 | 0.00 | 0.00 | 0.00 | 77 | 1013.6 |
| 20260506093503 | 62 | 140 | 0.0 | 5.0 | 0.00 | 0.00 | 0.00 | 77 | 1013.7 |
| 20260506093005 | 62 | 165 | 1.0 | 5.0 | 0.00 | 0.00 | 0.00 | 77 | 1013.8 |
| 20260506092506 | 62 | 32 | 1.0 | 2.0 | 0.00 | 0.00 | 0.00 | 78 | 1013.9 |
| 20260506092003 | 62 | 255 | 1.0 | 3.0 | 0.00 | 0.00 | 0.00 | 78 | 1013.8 |
| 20260506091503 | 62 | 183 | 2.0 | 2.0 | 0.00 | 0.00 | 0.00 | 78 | 1013.9 |
| 20260506091003 | 62 | 233 | 2.0 | 3.0 | 0.00 | 0.00 | 0.00 | 78 | 1013.9 |
| 20260506090503 | 62 | 241 | 1.0 | 3.0 | 0.00 | 0.00 | 0.00 | 79 | 1013.9 |
| 20260506090003 | 61 | 169 | 2.0 | 3.0 | 0.00 | 0.00 | 0.00 | 79 | 1013.8 |
| 20260506085503 | 61 | 185 | 0.0 | 2.0 | 0.00 | 0.00 | 0.00 | 80 | 1013.7 |
| 20260506085003 | 61 | 4 | 0.0 | 2.0 | 0.00 | 0.00 | 0.00 | 80 | 1013.6 |
| 20260506084504 | 61 | 271 | 0.0 | 2.0 | 0.00 | 0.00 | 0.00 | 80 | 1013.8 |
| 20260506083503 | 61 | 201 | 1.0 | 2.0 | 0.00 | 0.00 | 0.00 | 80 | 1014.0 |
| 20260506083003 | 61 | 263 | 0.0 | 1.0 | 0.00 | 0.00 | 0.00 | 80 | 1013.9 |
| 20260506082502 | 61 | 271 | 0.0 | 1.0 | 0.00 | 0.00 | 0.00 | 80 | 1013.9 |
| 20260506082003 | 61 | 291 | 0.0 | 2.0 | 0.00 | 0.00 | 0.00 | 80 | 1013.9 |
| 20260506081504 | 61 | 336 | 0.0 | 2.0 | 0.00 | 0.00 | 0.00 | 80 | 1013.9 |
| 20260506081003 | 61 | 63 | 0.0 | 2.0 | 0.00 | 0.00 | 0.00 | 80 | 1013.9 |
| 20260506073503 | 62 | 342 | 0.0 | 1.0 | 0.00 | 0.00 | 0.00 | 78 | 1014.1 |
| 20260506073003 | 62 | 262 | 0.0 | 1.0 | 0.00 | 0.00 | 0.00 | 78 | 1014.0 |
| 20260506072503 | 62 | 286 | 0.0 | 2.0 | 0.00 | 0.00 | 0.00 | 78 | 1014.1 |
| 20260506072003 | 62 | 202 | 0.0 | 1.0 | 0.00 | 0.00 | 0.00 | 78 | 1014.1 |
| 20260506071503 | 62 | 179 | 0.0 | 1.0 | 0.00 | 0.00 | 0.00 | 78 | 1014.2 |
| 20260506071003 | 62 | 82 | 1.0 | 2.0 | 0.00 | 0.00 | 0.00 | 77 | 1014.2 |
| 20260506070504 | 62 | 221 | 0.0 | 1.0 | 0.00 | 0.00 | 0.00 | 77 | 1014.0 |
| 20260506062503 | 63 | 202 | 1.0 | 3.0 | 0.00 | 0.00 | 0.00 | 75 | 1014.3 |
| 20260506062003 | 63 | 239 | 1.0 | 2.0 | 0.00 | 0.00 | 0.00 | 75 | 1014.4 |
| 20260506061503 | 64 | 177 | 1.0 | 2.0 | 0.00 | 0.00 | 0.00 | 75 | 1014.5 |
| 20260506061004 | 64 | 184 | 1.0 | 3.0 | 0.00 | 0.00 | 0.00 | 75 | 1014.5 |
| 20260506060503 | 64 | 171 | 2.0 | 3.0 | 0.00 | 0.00 | 0.00 | 74 | 1014.5 |
| 20260506051003 | 65 | 262 | 1.0 | 2.0 | 0.00 | 0.00 | 0.00 | 73 | 1014.8 |
| 20260506050503 | 65 | 286 | 1.0 | 3.0 | 0.00 | 0.00 | 0.00 | 73 | 1015.0 |
| 20260506044503 | 65 | 177 | 1.0 | 5.0 | 0.00 | 0.00 | 0.00 | 73 | 1014.9 |
| 20260506043503 | 65 | 203 | 2.0 | 3.0 | 0.00 | 0.00 | 0.00 | 72 | 1014.9 |
| 20260506043003 | 65 | 254 | 2.0 | 2.0 | 0.00 | 0.00 | 0.00 | 72 | 1014.9 |
| 20260506042503 | 65 | 142 | 2.0 | 2.0 | 0.00 | 0.00 | 0.00 | 72 | 1015.0 |
| 20260506042003 | 66 | 223 | 1.0 | 3.0 | 0.00 | 0.00 | 0.00 | 71 | 1015.0 |
| 20260506041503 | 66 | 154 | 2.0 | 3.0 | 0.00 | 0.00 | 0.00 | 71 | 1014.9 |
| 20260506041003 | 66 | 258 | 1.0 | 3.0 | 0.00 | 0.00 | 0.00 | 70 | 1015.0 |
| 20260506040504 | 66 | 255 | 1.0 | 3.0 | 0.00 | 0.00 | 0.00 | 70 | 1015.0 |
| 20260506035503 | 66 | 209 | 2.0 | 3.0 | 0.00 | 0.00 | 0.00 | 68 | 1014.9 |
| 20260506035004 | 66 | 219 | 1.0 | 3.0 | 0.00 | 0.00 | 0.00 | 68 | 1015.0 |
| 20260506034503 | 67 | 281 | 2.0 | 3.0 | 0.00 | 0.00 | 0.00 | 67 | 1015.0 |
| 20260506034003 | 67 | 233 | 2.0 | 7.0 | 0.00 | 0.00 | 0.00 | 67 | 1015.0 |
| 20260506033503 | 67 | 236 | 3.0 | 6.0 | 0.00 | 0.00 | 0.00 | 66 | 1015.0 |
| 20260506033004 | 67 | 69 | 1.0 | 3.0 | 0.00 | 0.00 | 0.00 | 66 | 1015.0 |
| 20260506032503 | 67 | 180 | 1.0 | 3.0 | 0.00 | 0.00 | 0.00 | 65 | 1015.0 |
| 20260506031503 | 68 | 223 | 1.0 | 3.0 | 0.00 | 0.00 | 0.00 | 64 | 1015.1 |
| 20260506030503 | 68 | 227 | 1.0 | 3.0 | 0.00 | 0.00 | 0.00 | 63 | 1015.1 |
| 20260506030003 | 68 | 254 | 3.0 | 6.0 | 0.00 | 0.00 | 0.00 | 63 | 1015.0 |
| 20260506025503 | 68 | 197 | 3.0 | 7.0 | 0.00 | 0.00 | 0.00 | 62 | 1015.1 |
| 20260506025004 | 69 | 149 | 2.0 | 3.0 | 0.00 | 0.00 | 0.00 | 62 | 1015.1 |
| 20260506024503 | 69 | 183 | 2.0 | 6.0 | 0.00 | 0.00 | 0.00 | 61 | 1015.1 |
| 20260506024003 | 69 | 252 | 1.0 | 2.0 | 0.00 | 0.00 | 0.00 | 61 | 1015.0 |
| 20260506023503 | 69 | 302 | 1.0 | 3.0 | 0.00 | 0.00 | 0.00 | 60 | 1015.0 |
| 20260506023003 | 69 | 204 | 2.0 | 3.0 | 0.00 | 0.00 | 0.00 | 60 | 1014.9 |
| 20260506022504 | 69 | 260 | 2.0 | 5.0 | 0.00 | 0.00 | 0.00 | 60 | 1015.0 |
| 20260506022018 | 70 | 281 | 1.0 | 3.0 | 0.00 | 0.00 | 0.00 | 59 | 1015.0 |
| 20260506021503 | 70 | 144 | 2.0 | 3.0 | 0.00 | 0.00 | 0.00 | 58 | 1014.9 |
| 20260506021004 | 70 | 182 | 1.0 | 3.0 | 0.00 | 0.00 | 0.00 | 58 | 1014.8 |
| 20260506020503 | 70 | 184 | 2.0 | 5.0 | 0.00 | 0.00 | 0.00 | 58 | 1014.8 |
| 20260506020004 | 70 | 171 | 1.0 | 5.0 | 0.00 | 0.00 | 0.00 | 57 | 1014.7 |
| 20260506015505 | 71 | 197 | 2.0 | 5.0 | 0.00 | 0.00 | 0.00 | 57 | 1014.7 |
| 20260506015003 | 71 | 243 | 2.0 | 5.0 | 0.00 | 0.00 | 0.00 | 56 | 1014.6 |
| 20260506014503 | 71 | 221 | 2.0 | 6.0 | 0.00 | 0.00 | 0.00 | 56 | 1014.5 |
| 20260506014003 | 71 | 347 | 2.0 | 5.0 | 0.00 | 0.00 | 0.00 | 55 | 1014.4 |
| 20260506013503 | 71 | 177 | 2.0 | 6.0 | 0.00 | 0.00 | 0.00 | 55 | 1014.4 |
| 20260506013003 | 71 | 273 | 2.0 | 7.0 | 0.00 | 0.00 | 0.00 | 55 | 1014.3 |
| 20260506012504 | 72 | 245 | 1.0 | 3.0 | 0.00 | 0.00 | 0.00 | 55 | 1014.2 |
| 20260506012003 | 72 | 240 | 1.0 | 5.0 | 0.00 | 0.00 | 0.00 | 54 | 1014.2 |
| 20260506011003 | 72 | 310 | 2.0 | 7.0 | 0.00 | 0.00 | 0.00 | 54 | 1014.1 |
| 20260506010503 | 72 | 330 | 2.0 | 3.0 | 0.00 | 0.00 | 0.00 | 54 | 1014.0 |
| 20260506010004 | 72 | 279 | 1.0 | 3.0 | 0.00 | 0.00 | 0.00 | 54 | 1013.9 |
| 20260506005003 | 73 | 267 | 1.0 | 3.0 | 0.00 | 0.00 | 0.00 | 53 | 1013.9 |
| 20260506004504 | 73 | 186 | 2.0 | 6.0 | 0.00 | 0.00 | 0.00 | 52 | 1013.7 |
| 20260506004003 | 73 | 209 | 1.0 | 5.0 | 0.00 | 0.00 | 0.00 | 52 | 1013.7 |
| 20260506003503 | 73 | 345 | 1.0 | 5.0 | 0.00 | 0.00 | 0.00 | 52 | 1013.6 |
| 20260506003003 | 73 | 289 | 0.0 | 3.0 | 0.00 | 0.00 | 0.00 | 51 | 1013.6 |
| 20260506002503 | 73 | 157 | 1.0 | 3.0 | 0.00 | 0.00 | 0.00 | 51 | 1013.5 |
| 20260506002003 | 73 | 118 | 1.0 | 3.0 | 0.00 | 0.00 | 0.00 | 50 | 1013.5 |
| 20260506001503 | 74 | 316 | 1.0 | 5.0 | 0.00 | 0.00 | 0.00 | 50 | 1013.4 |
| 20260506001003 | 74 | 231 | 1.0 | 2.0 | 0.00 | 0.00 | 0.00 | 49 | 1013.4 |
| 20260506000003 | 74 | 230 | 1.0 | 2.0 | 0.00 | 0.00 | 0.00 | 48 | 1013.3 |
| 20260505235503 | 75 | 210 | 1.0 | 2.0 | 0.00 | 0.00 | 0.00 | 47 | 1013.3 |
| 20260505235004 | 75 | 167 | 1.0 | 3.0 | 0.00 | 0.00 | 0.00 | 47 | 1013.3 |
| 20260505234504 | 75 | 211 | 2.0 | 3.0 | 0.00 | 0.00 | 0.00 | 47 | 1013.2 |
| 20260505234003 | 75 | 141 | 2.0 | 3.0 | 0.00 | 0.00 | 0.00 | 47 | 1013.3 |
| 20260505233503 | 76 | 201 | 1.0 | 3.0 | 0.00 | 0.00 | 0.00 | 47 | 1013.2 |
| 20260505233004 | 76 | 242 | 1.0 | 5.0 | 0.00 | 0.00 | 0.00 | 47 | 1013.2 |
| 20260505232503 | 76 | 249 | 1.0 | 3.0 | 0.00 | 0.00 | 0.00 | 46 | 1013.1 |
| 20260505232003 | 76 | 173 | 2.0 | 5.0 | 0.00 | 0.00 | 0.00 | 46 | 1013.1 |
| 20260505231504 | 76 | 204 | 1.0 | 5.0 | 0.00 | 0.00 | 0.00 | 46 | 1013.1 |
| 20260505230503 | 76 | 258 | 1.0 | 5.0 | 0.00 | 0.00 | 0.00 | 46 | 1013.1 |
| 20260505230003 | 76 | 216 | 1.0 | 3.0 | 0.00 | 0.00 | 0.00 | 45 | 1013.1 |
| 20260505225503 | 76 | 315 | 1.0 | 5.0 | 0.00 | 0.00 | 0.00 | 45 | 1013.1 |
| 20260505224503 | 77 | 238 | 2.0 | 5.0 | 0.00 | 0.00 | 0.00 | 44 | 1013.3 |
| 20260505224004 | 77 | 198 | 1.0 | 3.0 | 0.00 | 0.00 | 0.00 | 44 | 1013.3 |
| 20260505223004 | 78 | 147 | 2.0 | 5.0 | 0.00 | 0.00 | 0.00 | 43 | 1013.4 |
| 20260505222503 | 78 | 177 | 3.0 | 6.0 | 0.00 | 0.00 | 0.00 | 42 | 1013.4 |
| 20260505222003 | 78 | 258 | 2.0 | 5.0 | 0.00 | 0.00 | 0.00 | 42 | 1013.4 |
| 20260505221503 | 78 | 205 | 2.0 | 6.0 | 0.00 | 0.00 | 0.00 | 42 | 1013.4 |
| 20260505221004 | 78 | 263 | 2.0 | 5.0 | 0.00 | 0.00 | 0.00 | 41 | 1013.5 |
| 20260505220003 | 79 | 278 | 1.0 | 5.0 | 0.00 | 0.00 | 0.00 | 42 | 1013.5 |
| 20260505215503 | 79 | 158 | 2.0 | 6.0 | 0.00 | 0.00 | 0.00 | 40 | 1013.5 |
| 20260505215004 | 79 | 125 | 2.0 | 5.0 | 0.00 | 0.00 | 0.00 | 41 | 1013.6 |
| 20260505214006 | 79 | 251 | 2.0 | 6.0 | 0.00 | 0.00 | 0.00 | 40 | 1013.4 |
| 20260505213503 | 79 | 186 | 2.0 | 5.0 | 0.00 | 0.00 | 0.00 | 40 | 1013.5 |
| 20260505212503 | 79 | 225 | 2.0 | 5.0 | 0.00 | 0.00 | 0.00 | 40 | 1013.5 |
| 20260505212003 | 79 | 208 | 2.0 | 3.0 | 0.00 | 0.00 | 0.00 | 40 | 1013.5 |
| 20260505211504 | 79 | 169 | 3.0 | 5.0 | 0.00 | 0.00 | 0.00 | 39 | 1013.5 |
| 20260505211003 | 79 | 189 | 2.0 | 8.0 | 0.00 | 0.00 | 0.00 | 40 | 1013.6 |
| 20260505210503 | 79 | 223 | 2.0 | 8.0 | 0.00 | 0.00 | 0.00 | 39 | 1013.5 |
| 20260505210003 | 78 | 211 | 1.0 | 6.0 | 0.00 | 0.00 | 0.00 | 40 | 1013.5 |
| 20260505205003 | 79 | 257 | 1.0 | 3.0 | 0.00 | 0.00 | 0.00 | 39 | 1013.7 |
| 20260505204504 | 79 | 251 | 2.0 | 6.0 | 0.00 | 0.00 | 0.00 | 39 | 1013.7 |
| 20260505204003 | 79 | 219 | 1.0 | 3.0 | 0.00 | 0.00 | 0.00 | 40 | 1013.7 |
| 20260505203503 | 79 | 202 | 1.0 | 8.0 | 0.00 | 0.00 | 0.00 | 39 | 1013.8 |
| 20260505203003 | 80 | 178 | 2.0 | 5.0 | 0.00 | 0.00 | 0.00 | 38 | 1013.7 |
| 20260505202504 | 80 | 219 | 3.0 | 6.0 | 0.00 | 0.00 | 0.00 | 38 | 1013.7 |
| 20260505202004 | 80 | 182 | 3.0 | 6.0 | 0.00 | 0.00 | 0.00 | 38 | 1013.7 |
| 20260505201503 | 81 | 142 | 2.0 | 6.0 | 0.00 | 0.00 | 0.00 | 38 | 1013.6 |
| 20260505201004 | 80 | 180 | 1.0 | 5.0 | 0.00 | 0.00 | 0.00 | 39 | 1013.6 |
| 20260505200503 | 80 | 259 | 2.0 | 5.0 | 0.00 | 0.00 | 0.00 | 39 | 1013.7 |
| 20260505200004 | 79 | 171 | 2.0 | 3.0 | 0.00 | 0.00 | 0.00 | 40 | 1013.7 |
| 20260505195503 | 79 | 184 | 2.0 | 6.0 | 0.00 | 0.00 | 0.00 | 39 | 1014.0 |
| 20260505195003 | 79 | 130 | 2.0 | 5.0 | 0.00 | 0.00 | 0.00 | 41 | 1013.9 |
| 20260505194504 | 79 | 165 | 2.0 | 7.0 | 0.00 | 0.00 | 0.00 | 40 | 1014.1 |
| 20260505194003 | 80 | 211 | 2.0 | 6.0 | 0.00 | 0.00 | 0.00 | 41 | 1014.2 |
| 20260505193504 | 80 | 225 | 2.0 | 6.0 | 0.00 | 0.00 | 0.00 | 39 | 1014.2 |
| 20260505193003 | 80 | 260 | 1.0 | 5.0 | 0.00 | 0.00 | 0.00 | 40 | 1014.4 |
| 20260505192004 | 79 | 203 | 1.0 | 3.0 | 0.00 | 0.00 | 0.00 | 43 | 1014.5 |
| 20260505191504 | 79 | 201 | 2.0 | 5.0 | 0.00 | 0.00 | 0.00 | 41 | 1014.5 |
| 20260505191004 | 80 | 158 | 3.0 | 9.0 | 0.00 | 0.00 | 0.00 | 39 | 1014.5 |
| 20260505190503 | 79 | 263 | 2.0 | 5.0 | 0.00 | 0.00 | 0.00 | 41 | 1014.6 |
| 20260505185503 | 79 | 288 | 2.0 | 5.0 | 0.00 | 0.00 | 0.00 | 42 | 1014.9 |
| 20260505185003 | 79 | 195 | 1.0 | 3.0 | 0.00 | 0.00 | 0.00 | 41 | 1014.9 |
| 20260505183503 | 79 | 264 | 1.0 | 3.0 | 0.00 | 0.00 | 0.00 | 40 | 1015.0 |
| 20260505183003 | 79 | 273 | 2.0 | 3.0 | 0.00 | 0.00 | 0.00 | 40 | 1015.3 |
| 20260505182503 | 79 | 245 | 2.0 | 5.0 | 0.00 | 0.00 | 0.00 | 40 | 1015.3 |
| 20260505182003 | 80 | 279 | 1.0 | 6.0 | 0.00 | 0.00 | 0.00 | 38 | 1015.4 |
| 20260505181503 | 80 | 246 | 2.0 | 8.0 | 0.00 | 0.00 | 0.00 | 39 | 1015.3 |
| 20260505181003 | 80 | 192 | 2.0 | 3.0 | 0.00 | 0.00 | 0.00 | 38 | 1015.2 |
| 20260505175504 | 80 | 161 | 1.0 | 6.0 | 0.00 | 0.00 | 0.00 | 39 | 1015.5 |
| 20260505175004 | 80 | 202 | 2.0 | 6.0 | 0.00 | 0.00 | 0.00 | 38 | 1015.4 |
| 20260505174503 | 80 | 107 | 1.0 | 5.0 | 0.00 | 0.00 | 0.00 | 39 | 1015.4 |
| 20260505174003 | 79 | 158 | 1.0 | 3.0 | 0.00 | 0.00 | 0.00 | 40 | 1015.4 |